This demonstration page uses our WeatherBlox Daily Observations layout. Learn more.

Left ArrowRight Arrow

Hourly Observations for June 26, 2019

Temp ( °F °C ) Dew Point ( °F °C ) Humidity (%) Winds ( mph kmh ) Pressure ( in mb ) Visibility ( mi km ) Precip ( " mm )
12:51 am 00:51 Clear 77 25 26 -3.3 15 15 NW 9 15 29.73 1007 10 16 0.00 0.00
1:51 am 01:51 Clear 75 23.9 26 -3.3 16 16 N 7 11 29.73 1007 10 16 0.00 0.00
2:51 am 02:51 Clear 76 24.4 27 -2.8 16 16 NNW 9 15 29.74 1007 10 16 0.00 0.00
3:51 am 03:51 Clear 71 21.7 27 -2.8 19 19 S 6 9 29.76 1008 10 16 0.00 0.00
4:51 am 04:51 Clear 66 18.9 26 -3.3 22 22 ESE 5 7 29.80 1009 10 16 0.00 0.00
5:51 am 05:51 Sunny 67 19.4 25 -3.9 20 20 E 5 7 29.82 1010 10 16 0.00 0.00
6:51 am 06:51 Sunny 76 24.4 27 -2.8 16 16 SE 3 6 29.84 1011 10 16 0.00 0.00
7:51 am 07:51 Sunny 80 26.7 27 -2.8 14 14 VRB 3 6 29.86 1011 10 16 0.00 0.00
8:51 am 08:51 Sunny 86 30 25 -3.9 11 11 NW 7 11 29.85 1011 10 16 0.00 0.00
9:51 am 09:51 Sunny 89 31.7 24 -4.4 9 9 NW 9 15 29.85 1011 10 16 0.00 0.00
10:51 am 10:51 Sunny 92 33.3 24 -4.4 8 8 VRB 3 6 29.83 1010 10 16 0.00 0.00
11:51 am 11:51 Sunny 94 34.4 26 -3.3 9 9 SSW 6 9 29.82 1010 10 16 0.00 0.00
12:51 pm 12:51 Sunny 96 35.6 26 -3.3 8 8 Calm 29.80 1009 10 16 0.00 0.00
1:51 pm 13:51 Sunny 100 37.8 27 -2.8 7 7 VRB 5 7 29.77 1008 10 16 0.00 0.00
2:51 pm 14:51 Partly Cloudy 102 38.9 28 -2.2 7 7 Calm 29.74 1007 10 16 0.00 0.00
3:51 pm 15:51 Mostly Cloudy 101 38.3 30 -1.1 8 8 VRB 3 6 29.72 1007 10 16 0.00 0.00
4:51 pm 16:51 Mostly Cloudy 101 38.3 31 -0.6 8 8 WNW 13 20 29.71 1006 10 16 0.00 0.00
5:51 pm 17:51 Partly Cloudy 99 37.2 31 -0.6 9 9 WNW 15 24 29.72 1007 10 16 0.00 0.00
6:51 pm 18:51 Partly Cloudy 96 35.6 35 1.7 12 12 NW 14 22 29.72 1007 10 16 0.00 0.00
7:51 pm 19:51 Mostly Clear 92 33.3 39 3.9 16 16 WNW 16 26 29.74 1007 10 16 0.00 0.00
8:51 pm 20:51 Mostly Clear 90 32.2 38 3.3 16 16 NW 13 20 29.76 1008 10 16 0.00 0.00
9:51 pm 21:51 Clear 89 31.7 39 3.9 17 17 NW 12 19 29.79 1009 10 16 0.00 0.00
10:51 pm 22:51 Clear 85 29.4 38 3.3 19 19 W 6 9 29.80 1009 10 16 0.00 0.00
11:51 pm 23:51 Clear 82 27.8 38 3.3 21 21 WNW 7 11 29.81 1010 10 16 0.00 0.00

Powered by AerisWeather